TimeCDT,TemperatureF,Dew PointF,Humidity,Sea Level PressureIn,VisibilityMPH,Wind Direction,Wind SpeedMPH,Gust SpeedMPH,PrecipitationIn,Events,Conditions,WindDirDegrees,DateUTC
12:15 AM,82.8,69.1,63,29.96,10.0,SE,8.1,-,N/A,,Clear,140,2013-07-14 05:15:00
12:35 AM,82.4,69.1,64,29.97,10.0,SSE,11.5,-,N/A,,Clear,160,2013-07-14 05:35:00
12:55 AM,81.3,69.4,67,29.97,10.0,SE,10.4,-,N/A,,Clear,140,2013-07-14 05:55:00
1:15 AM,80.8,69.4,68,29.95,10.0,SE,10.4,-,N/A,Thunderstorm,Clear,140,2013-07-14 06:15:00
1:35 AM,80.1,69.3,69,29.95,10.0,SE,10.4,-,N/A,,Scattered Clouds,140,2013-07-14 06:35:00
1:55 AM,79.7,68.4,68,29.93,10.0,SSE,11.5,18.4,N/A,,Scattered Clouds,160,2013-07-14 06:55:00
2:15 AM,78.8,68.0,69,29.93,10.0,SSE,9.2,-,N/A,Thunderstorm,Thunderstorm,160,2013-07-14 07:15:00
2:35 AM,78.3,67.8,70,29.92,10.0,SSE,12.7,16.1,N/A,,Scattered Clouds,160,2013-07-14 07:35:00
2:55 AM,78.3,67.3,69,29.92,10.0,SSE,13.8,-,N/A,,Scattered Clouds,150,2013-07-14 07:55:00
3:15 AM,77.9,67.6,71,29.93,10.0,ESE,10.4,-,N/A,,Clear,120,2013-07-14 08:15:00
3:35 AM,77.0,68.9,76,29.94,10.0,ESE,10.4,-,N/A,,Clear,120,2013-07-14 08:35:00
3:55 AM,76.6,69.1,77,29.94,10.0,SE,11.5,-,N/A,,Clear,130,2013-07-14 08:55:00
4:15 AM,76.3,69.1,78,29.96,10.0,SE,11.5,-,N/A,,Scattered Clouds,140,2013-07-14 09:15:00
4:35 AM,76.3,68.9,78,29.95,10.0,SE,12.7,-,N/A,,Mostly Cloudy,130,2013-07-14 09:35:00
4:55 AM,76.1,68.5,77,29.95,10.0,SE,11.5,-,N/A,,Overcast,130,2013-07-14 09:55:00
5:15 AM,75.6,67.8,77,29.95,10.0,SE,12.7,17.3,N/A,,Overcast,140,2013-07-14 10:15:00
5:35 AM,75.7,66.7,74,29.96,10.0,SSE,12.7,-,N/A,,Mostly Cloudy,150,2013-07-14 10:35:00
5:55 AM,75.7,66.2,72,29.95,10.0,SSE,17.3,21.9,N/A,,Overcast,150,2013-07-14 10:55:00
6:15 AM,75.6,66.2,73,29.97,10.0,SSE,13.8,19.6,N/A,Thunderstorm,Scattered Clouds,150,2013-07-14 11:15:00
6:35 AM,75.7,66.2,72,29.98,10.0,SSE,12.7,-,N/A,Thunderstorm,Scattered Clouds,160,2013-07-14 11:35:00
6:55 AM,75.4,66.2,73,29.99,10.0,SE,12.7,-,N/A,,Clear,130,2013-07-14 11:55:00
7:15 AM,74.8,66.2,74,30.01,10.0,SE,8.1,-,N/A,Thunderstorm,Clear,140,2013-07-14 12:15:00
7:35 AM,75.7,66.2,72,30.05,10.0,South,6.9,-,N/A,,Scattered Clouds,170,2013-07-14 12:35:00
7:55 AM,75.4,66.2,73,30.04,10.0,SE,4.6,-,N/A,Thunderstorm,Mostly Cloudy,140,2013-07-14 12:55:00
8:15 AM,75.4,66.4,73,30.05,10.0,SE,4.6,-,N/A,,Overcast,130,2013-07-14 13:15:00
8:35 AM,75.0,66.6,75,30.05,10.0,ESE,3.5,-,N/A,,Mostly Cloudy,110,2013-07-14 13:35:00
8:55 AM,75.2,66.6,74,30.06,10.0,ESE,5.8,-,N/A,Thunderstorm,Mostly Cloudy,120,2013-07-14 13:55:00
9:15 AM,74.5,66.9,77,30.07,10.0,ESE,5.8,-,N/A,Thunderstorm,Mostly Cloudy,120,2013-07-14 14:15:00
9:35 AM,74.1,67.6,80,30.07,10.0,East,4.6,-,N/A,Thunderstorm,Overcast,100,2013-07-14 14:35:00
9:55 AM,74.3,67.3,79,30.05,10.0,East,4.6,-,N/A,,Overcast,90,2013-07-14 14:55:00
10:15 AM,74.3,67.6,80,30.05,10.0,East,6.9,-,N/A,,Overcast,90,2013-07-14 15:15:00
10:35 AM,75.0,68.0,79,30.05,10.0,East,9.2,-,N/A,,Mostly Cloudy,100,2013-07-14 15:35:00
10:55 AM,75.2,68.4,79,30.06,10.0,East,11.5,-,N/A,,Mostly Cloudy,100,2013-07-14 15:55:00
11:15 AM,74.7,67.8,79,30.07,7.0,ESE,16.1,-,N/A,,Overcast,110,2013-07-14 16:15:00
11:35 AM,74.5,67.1,78,30.07,10.0,ESE,12.7,-,N/A,,Overcast,120,2013-07-14 16:35:00
11:55 AM,74.3,67.1,78,30.07,10.0,SE,16.1,-,N/A,,Overcast,130,2013-07-14 16:55:00
12:15 PM,74.3,66.4,76,30.08,10.0,SE,5.8,18.4,N/A,Thunderstorm,Overcast,140,2013-07-14 17:15:00
12:35 PM,73.6,67.1,80,30.08,10.0,SE,11.5,-,N/A,Rain,Light Rain,130,2013-07-14 17:35:00
12:55 PM,73.4,66.9,80,30.09,10.0,SE,11.5,-,N/A,,Light Drizzle,140,2013-07-14 17:55:00
1:15 PM,72.5,66.9,83,30.09,10.0,SE,6.9,-,N/A,,Overcast,130,2013-07-14 18:15:00
1:35 PM,73.0,66.9,81,30.09,10.0,ESE,8.1,-,N/A,,Light Drizzle,120,2013-07-14 18:35:00
1:55 PM,73.8,67.3,80,30.09,10.0,ESE,10.4,-,N/A,,Mostly Cloudy,120,2013-07-14 18:55:00
2:15 PM,75.2,66.9,75,30.10,10.0,ESE,10.4,-,N/A,,Scattered Clouds,120,2013-07-14 19:15:00
2:35 PM,74.7,66.7,76,30.10,10.0,ESE,9.2,-,N/A,,Scattered Clouds,120,2013-07-14 19:35:00
2:55 PM,75.2,66.6,74,30.10,10.0,ESE,6.9,-,N/A,,Mostly Cloudy,120,2013-07-14 19:55:00
3:15 PM,75.2,67.1,76,30.11,10.0,ESE,6.9,-,N/A,Rain,Light Rain,120,2013-07-14 20:15:00
3:35 PM,76.5,66.7,72,30.11,10.0,ESE,9.2,-,N/A,,Mostly Cloudy,120,2013-07-14 20:35:00
3:55 PM,78.3,66.6,67,30.11,10.0,SE,9.2,-,N/A,,Mostly Cloudy,140,2013-07-14 20:55:00
4:15 PM,77.5,66.6,69,30.11,10.0,ESE,5.8,-,N/A,,Scattered Clouds,110,2013-07-14 21:15:00
4:35 PM,77.5,66.4,68,30.11,10.0,SE,6.9,-,N/A,,Mostly Cloudy,130,2013-07-14 21:35:00
4:55 PM,77.2,66.4,69,30.10,10.0,ESE,6.9,-,N/A,,Overcast,110,2013-07-14 21:55:00
5:15 PM,77.9,66.9,69,30.10,10.0,ESE,6.9,-,N/A,,Overcast,110,2013-07-14 22:15:00
5:35 PM,78.3,67.6,70,30.11,10.0,East,5.8,-,N/A,,Overcast,90,2013-07-14 22:35:00
5:55 PM,77.4,67.1,71,30.11,10.0,ESE,8.1,-,N/A,,Overcast,110,2013-07-14 22:55:00
6:15 PM,77.5,66.4,68,30.10,10.0,ESE,8.1,-,N/A,,Overcast,110,2013-07-14 23:15:00
6:35 PM,77.0,66.2,69,30.10,10.0,ESE,8.1,-,N/A,,Overcast,120,2013-07-14 23:35:00
6:55 PM,76.5,66.2,70,30.11,10.0,SE,6.9,-,N/A,,Overcast,140,2013-07-14 23:55:00
7:15 PM,75.6,67.1,75,30.12,10.0,SE,9.2,-,N/A,,Overcast,140,2013-07-15 00:15:00
7:35 PM,75.4,67.1,75,30.12,10.0,SE,8.1,-,N/A,,Overcast,140,2013-07-15 00:35:00
7:55 PM,74.8,66.9,76,30.13,10.0,SE,9.2,-,N/A,,Overcast,140,2013-07-15 00:55:00
8:15 PM,74.1,66.6,77,30.13,10.0,SE,8.1,-,N/A,,Overcast,130,2013-07-15 01:15:00
8:35 PM,73.4,66.7,80,30.14,10.0,SE,4.6,-,N/A,,Overcast,140,2013-07-15 01:35:00
8:55 PM,72.5,67.5,84,30.15,5.0,Calm,Calm,-,N/A,,Light Drizzle,0,2013-07-15 01:55:00
9:15 PM,72.1,67.5,85,30.15,7.0,Calm,Calm,-,N/A,Thunderstorm,Overcast,0,2013-07-15 02:15:00
9:35 PM,72.1,67.8,86,30.15,7.0,Calm,Calm,-,N/A,,Overcast,0,2013-07-15 02:35:00
9:55 PM,72.5,67.5,84,30.15,10.0,Calm,Calm,-,N/A,,Overcast,0,2013-07-15 02:55:00
10:15 PM,72.0,67.6,86,30.16,7.0,Calm,Calm,-,N/A,,Overcast,0,2013-07-15 03:15:00
10:35 PM,72.1,67.5,85,30.17,7.0,ESE,3.5,-,N/A,,Overcast,110,2013-07-15 03:35:00
10:55 PM,72.3,67.3,84,30.17,7.0,East,3.5,-,N/A,,Mostly Cloudy,100,2013-07-15 03:55:00
11:15 PM,71.8,66.9,85,30.17,7.0,ESE,5.8,-,N/A,,Scattered Clouds,110,2013-07-15 04:15:00
11:35 PM,72.3,66.7,83,30.17,7.0,ESE,5.8,-,N/A,,Mostly Cloudy,110,2013-07-15 04:35:00
11:55 PM,72.5,66.6,82,30.18,10.0,ESE,5.8,-,N/A,,Overcast,110,2013-07-15 04:55:00